www.pogodaiklimat.ru

Погода и климат >> Архив погоды >> Великобритания >> Линтон-он-Уз


ПОГОДА в Линтон-он-Узе

  • Прогноз погоды в Линтон-он-Узе
  • Монитор погоды в Линтон-он-Узе

АРХИВ ПОГОДЫ в Линтон-он-Узе

Время (UTC), дата Ветер
(напр.,м/с)
 
Видим.   Явления Облачность Т
(С)
Тd
(С)
f
(%)
Тe
(С)
Тes
(С)
Комфортность P
(гПа)
Po
(гПа)
Тmin
(С)
Tmax
(С)
R
(мм)
R24
(мм)
S
(см)
22 10.06 С 4 22 км н/о +12.1 +9.4 84 +10 +10 1018.6 1016.9
23 10.06 С 5 22 км н/о +11.8 +9.3 85 +9 +9 1018.3 1016.6
00 11.06 С 5 23 км н/о +11.9 +9.1 83 +10 +10 1018.3 1016.6
01 11.06 С 5 24 км н/о +12.0 +9.0 82 +10 +10 1018.1 1016.4
02 11.06 С 7 23 км н/о +11.9 +8.6 80 +9 +9 1017.8 1016.1
03 11.06 СВ 6 24 км н/о +11.4 +8.3 81 +9 +9 1017.9 1016.2
04 11.06 С 7 26 км н/о +11.5 +8.0 79 +8 +8 1017.7 1016.0
05 11.06 С 7 25 км слаб. дождь 10/4 660 м
[Sc As op]
+11.4 +7.7 78 +8 +8 1017.7 1016.0
06 11.06 С 8
{13}
30 км в посл. час дождь 10/5 700 м
[Sc As op]
+11.2 +7.4 77 +8 +8 1017.7 1016.0 +11.2 0.0
07 11.06 С 8-13
{14}
30 км 9/9 660 м
[Sc As op]
+11.3 +7.2 76 +8 +8 1017.8 1016.1
08 11.06 С 9
{13}
25 км слаб. дождь 10/9 660 м
[Sc As op]
+11.6 +7.3 75 +8 +8 1017.9 1016.2
09 11.06 С 10-15
{15}
25 км дождь 10/9 700 м
[Sc As op]
+11.1 +7.7 80 +7 +7 1018.0 1016.3
10 11.06 С 7 25 км слаб. дождь 10/10 660 м
[Sc]
+11.5 +7.7 77 +8 +8 1017.9 1016.2
11 11.06 С 8-13
{13}
25 км в посл. час дождь 10/6 800 м
[Cu hum As op]
+11.8 +6.8 71 +9 +9 1018.0 1016.3
12 11.06 С 9
{13}
30 км 10/9 720 м
[Sc As op]
+12.0 +7.1 72 +9 +9 1017.9 1016.2 0.0
13 11.06 С 8
{13}
10 км слаб. дождь 10/10 630 м
[Sc]
+11.4 +7.3 76 +8 +8 1018.0 1016.3
14 11.06 С 7 12 км слаб. дождь 10/10 660 м
[Sc]
+10.9 +7.7 81 +7 +7 1018.1 1016.4
15 11.06 С 7 12 км дождь 10/10 600 м
[Sc]
+11.4 +8.1 80 +8 +8 1018.1 1016.4
16 11.06 С 7 10 км слаб. дождь 10/10 600 м
[Sc]
+10.8 +8.5 86 +7 +7 1018.0 1016.3
17 11.06 С 6 12 км н/о +10.5 +8.4 87 +7 +7 1017.7 1016.0
18 11.06 С 6 17 км н/о +10.2 +8.2 87 +7 +7 1017.5 1015.7 +12.3 1
19 11.06 С 6 14 км н/о +9.8 +8.1 89 +6 +6 1017.3 1015.6
20 11.06 С 5 9000 м н/о +9.6 +8.4 92 +6 +6 1017.2 1015.5
21 11.06 С 5 9000 м н/о +9.6 +8.4 92 +6 +6 1017.2 1015.5
22 11.06 С 5 11 км н/о +9.7 +8.6 93 +6 +6 1016.6 1014.9
23 11.06 С 6 9000 м н/о +9.8 +8.6 92 +6 +6 1015.9 1014.2
00 12.06 С 6 19 км н/о +9.7 +8.5 92 +6 +6 1015.2 1013.5 8
01 12.06 С 7 18 км н/о +9.8 +8.6 92 +6 +6 1014.3 1012.6
02 12.06 С 7 9000 м н/о +9.6 +8.7 94 +6 +6 1013.5 1011.8
03 12.06 С 7 25 км н/о +9.7 +8.8 94 +6 +6 1012.8 1011.0
04 12.06 С 7 7000 м н/о +9.7 +9.0 95 +6 +6 1012.3 1010.6
05 12.06 С 6 3600 м н/о +10.0 +9.5 97 +6 +6 1012.1 1010.4
06 12.06 С 7 19 км н/о +10.8 +10.0 95 +7 +7 1011.3 1009.6 +9.5 9
07 12.06 С 6 15 км слаб. дождь 10/10 450 м
[Sc]
+11.5 +10.4 93 +9 +9 1011.0 1009.3
08 12.06 С 5 4000 м слаб. морось {дождь} 10/10 240 м
[St]
+11.5 +11.0 97 +9 +9 1011.5 1009.8
09 12.06 С 5 20 км слаб. морось {дождь} 10/10 270 м
[St]
+11.9 +11.3 96 +9 +9 1011.2 1009.5
10 12.06 С 5 30 км в посл. час морось 9/9 360 м
[St]
+12.5 +11.3 92 +10 +11 1010.8 1009.2
11 12.06 С 6 35 км н/о +12.8 +11.6 92 +10 +10 1010.6 1008.9
12 12.06 С 6 35 км н/о +13.3 +11.3 88 +11 +11 1010.4 1008.7 0.2
13 12.06 С 4 30 км 10/10 330 м
[St]
+13.7 +12.0 89 +12 +12 1010.1 1008.4
14 12.06 С 4 27 км н/о +14.1 +12.4 89 +13 +13 1009.5 1007.8
15 12.06 СВ 4 28 км н/о +14.6 +12.4 87 +13 +13 1009.3 1007.6
16 12.06 СВ 4 19 км н/о +14.1 +12.6 91 +13 +13 1009.1 1007.4
17 12.06 В 5 20 км н/о +13.6 +11.6 88 +12 +12 1008.8 1007.1
18 12.06 СВ 4 22 км н/о +13.2 +10.8 85 +11 +11 1008.4 1006.7 +14.6 0.2
19 12.06 СВ 3 18 км н/о +12.8 +10.8 88 +12 +12 1008.0 1006.3
20 12.06 СВ 2 7000 м н/о +12.1 +11.4 95 +11 +11 1007.6 1005.9
21 12.06 СВ 2 5000 м н/о +11.8 +11.4 97 +11 +11 1007.5 1005.8
22 12.06 В 3 6000 м н/о +11.6 +11.3 98 +10 +10 1006.9 1005.2
23 12.06 СЗ 1 2200 м н/о +11.3 +10.9 97 +11 +11 1006.0 1004.3
00 13.06 СЗ 2 3700 м н/о +11.1 +10.8 98 +10 +10 1005.5 1003.9 5
01 13.06 ЮВ 1 6000 м н/о +10.6 +10.2 97 +10 +10 1004.9 1003.2
02 13.06 СВ 2 4100 м н/о +10.2 +9.8 97 +9 +9 1004.1 1002.4
03 13.06 СЗ 2 9000 м н/о +9.9 +9.6 98 +9 +9 1003.3 1001.6
04 13.06 С 1 15 км н/о +9.8 +9.6 99 +9 +9 1002.9 1001.3
05 13.06 СВ 1 22 км н/о +9.8 +9.6 99 +9 +9 1002.8 1001.1
06 13.06 С 2 15 км в посл. час дождь 9/9 90 м
[Sc]
+10.1 +9.9 99 +9 +9 1002.4 1000.7 +9.8 8
07 13.06 С 2 15 км 10/10 90 м
[St]
+10.4 +10.1 98 +9 +9 1002.0 1000.3
08 13.06 СЗ 2 15 км 9/9 150 м
[Sc]
+11.0 +10.4 96 +10 +10 1001.9 1000.2
09 13.06 З 3 7000 м слаб. дождь {морось} 10/10 120 м
[Sc]
+11.4 +10.9 97 +9 +9 1001.5 999.9
10 13.06 С 3 12 км в посл. час дождь 9/9 180 м
[Sc]
+11.7 +10.7 94 +10 +11 1001.3 999.6
11 13.06 С 5 12 км в посл. час дождь 9/9 180 м
[Sc]
+11.9 +10.5 91 +9 +10 1001.4 999.8
12 13.06 С 7 20 км в посл. час дождь 10/10 480 м
[Sc]
+11.6 +9.3 86 +8 +8 1001.7 1000.0 0.0
13 13.06 СЗ 6 15 км слаб. дождь 10/10 360 м
[Sc]
+10.6 +8.9 89 +7 +7 1002.2 1000.5
14 13.06 СЗ 6 17 км н/о +10.4 +9.2 92 +7 +7 1002.4 1000.7
15 13.06 С 6 25 км в посл. час дождь 10/10 270 м
[Sc]
+10.7 +8.7 87 +8 +8 1002.7 1001.0
16 13.06 СЗ 5 35 км н/о +10.6 +8.3 86 +8 +8 1003.0 1001.3
17 13.06 С 2 20 км н/о +10.7 +9.6 93 +9 +9 1003.0 1001.3
18 13.06 С 1 25 км н/о +10.9 +8.7 86 +11 +11 1003.2 1001.5 +12.3 0.2
19 13.06 ЮЗ 1 27 км н/о +10.8 +8.7 87 +10 +10 1003.7 1002.0
20 13.06 Ю 3 6000 м н/о +10.1 +9.0 93 +8 +8 1004.2 1002.5
21 13.06 ЮВ 3 27 км н/о +9.7 +8.9 95 +8 +8 1004.9 1003.2
22 13.06 Ю 2 23 км н/о +9.9 +9.2 95 +9 +9 1005.4 1003.7
23 13.06 Ю 2 16 км н/о +9.7 +9.1 96 +8 +8 1005.5 1003.8
00 14.06 Ю 3 27 км н/о +9.6 +7.9 89 +7 +7 1005.6 1003.9 0.2
01 14.06 Ю 3 12 км н/о +9.6 +8.8 95 +7 +7 1005.6 1003.9
02 14.06 Ю 3 17 км н/о +9.4 +8.2 92 +7 +7 1005.7 1004.0
03 14.06 Ю 2 16 км н/о +9.4 +8.3 93 +8 +8 1005.5 1003.8
04 14.06 Ю 2 6000 м н/о +9.3 +8.6 95 +7 +7 1005.8 1004.1
05 14.06 ЮВ 3 5000 м н/о +9.2 +8.7 97 +7 +7 1006.1 1004.4
06 14.06 ЮВ 3 7000 м н/о +9.6 +9.2 97 +7 +7 1006.2 1004.5 +9.2 1
07 14.06 ЮВ 4 7000 м н/о +10.1 +9.6 97 +7 +7 1006.2 1004.5
08 14.06 Ю 5 11 км н/о +11.4 +10.5 94 +9 +9 1006.3 1004.6
09 14.06 Ю 4 20 км н/о +12.5 +10.9 90 +10 +10 1006.5 1004.8
10 14.06 Ю 5 12 км н/о +12.9 +11.3 90 +11 +11 1006.5 1004.8
11 14.06 Ю 3 25 км н/о +13.3 +11.3 88 +12 +12 1006.6 1004.9
12 14.06 ЮЗ 4 30 км н/о +14.7 +10.3 75 +13 +13 1007.0 1005.3 1
13 14.06 З 5 35 км н/о +15.2 +8.7 65 +14 +14 1007.8 1006.1
14 14.06 ЮЗ 4 35 км н/о +15.7 +8.1 61 +15 +15 1008.1 1006.5
15 14.06 Ю 3 н/о н/о +16.7 +7.2 53 +17 +17 1008.1 1006.4
16 14.06 Ю 3 30 км н/о +17.0 +8.4 57 +17 +17 1008.0 1006.4
17 14.06 ЮВ 5 26 км н/о +14.7 +10.3 75 +13 +13 1008.8 1007.1
18 14.06 ЮВ 4 17 км н/о +12.6 +11.2 91 +11 +11 1008.9 1007.2 +17.4 2
19 14.06 В 3 25 км н/о +12.7 +10.9 89 +11 +11 1009.0 1007.4
20 14.06 В 3 23 км н/о +12.7 +11.2 91 +11 +11 1009.2 1007.5
21 14.06 В 2 19 км н/о +12.3 +11.2 93 +11 +11 1009.4 1007.8
22 14.06 В 2 15 км н/о +12.0 +11.2 95 +11 +11 1009.6 1008.0
23 14.06 ЮВ 2 15 км н/о +11.5 +10.7 95 +10 +10 1009.8 1008.1
00 15.06 ЮВ 4 20 км н/о +11.7 +10.8 94 +10 +10 1010.0 1008.3
01 15.06 ЮВ 4 16 км н/о +11.8 +10.8 94 +9 +9 1010.0 1008.3
02 15.06 ЮВ 3 17 км н/о +11.8 +10.9 94 +10 +10 1010.0 1008.3
03 15.06 Ю 3 15 км н/о +11.8 +10.9 94 +10 +10 1009.7 1008.0
04 15.06 ЮВ 2 9000 м н/о +10.6 +9.9 95 +9 +9 1009.5 1007.8
05 15.06 ЮВ 4 12 км н/о +10.9 +10.2 95 +8 +8 1009.8 1008.1
06 15.06 ЮВ 4 19 км н/о +11.1 +9.8 92 +9 +9 1010.0 1008.3 +10.3
07 15.06 Ю 4 19 км н/о +11.7 +9.9 89 +10 +10 1009.8 1008.1
08 15.06 Ю 5 25 км н/о +13.4 +10.2 81 +11 +11 1010.3 1008.6
09 15.06 Ю 7 29 км н/о +14.6 +9.9 73 +13 +13 1010.1 1008.5
10 15.06 Ю 6 30 км н/о +15.8 +10.4 70 +15 +15 1010.0 1008.3
11 15.06 Ю 7 30 км н/о +16.1 +9.6 65 +15 +15 1010.1 1008.4
12 15.06 Ю 6 30 км н/о +16.1 +10.2 68 +15 +15 1010.3 1008.6
13 15.06 Ю 6 30 км н/о +16.4 +10.7 69 +15 +15 1010.2 1008.5
14 15.06 Ю 4 30 км н/о +16.5 +10.5 68 +16 +16 1009.9 1008.2
15 15.06 Ю 5 30 км н/о +17.5 +11.2 67 +17 +17 1009.6 1007.9
16 15.06 ЮЗ 7 30 км н/о +14.6 +10.0 74 +13 +13 1009.9 1008.2
17 15.06 СЗ 2 14 км н/о +12.0 +11.1 94 +11 +11 1010.3 1008.6
18 15.06 С 2 30 км н/о +12.9 +11.5 91 +12 +12 1010.2 1008.5 +17.7 4
19 15.06 СЗ 1 30 км н/о +13.0 +10.8 86 +13 +13 1010.4 1008.7
20 15.06 Ю 2 19 км н/о +12.5 +11.5 94 +12 +12 1010.7 1009.0
21 15.06 Ю 1 21 км н/о +12.1 +11.3 95 +13 +13 1011.0 1009.3
22 15.06 Ю 3 17 км н/о +11.0 +10.5 97 +9 +9 1011.4 1009.7
23 15.06 Ю 3 12 км н/о +10.2 +9.7 97 +8 +8 1011.5 1009.8
00 16.06 Ю 2 3900 м н/о +9.5 +9.3 99 +8 +8 1011.8 1010.1 0.6
01 16.06 Ю 3 8000 м н/о +9.5 +9.2 98 +7 +7 1011.8 1010.1
02 16.06 ЮЗ 2 12 км н/о +9.0 +8.4 96 +7 +7 1012.0 1010.3
03 16.06 Ю 2 8000 м н/о +8.5 +7.9 96 +6 +6 1012.0 1010.3
04 16.06 Ю 1 7000 м н/о +7.7 +7.2 97 +7 +7 1012.0 1010.3
05 16.06 Ю 1 11 км н/о +8.1 +7.7 97 +7 +7 1012.5 1010.7
06 16.06 Ю 4 18 км н/о +9.6 +8.5 93 +7 +7 1012.5 1010.8 +7.6 0.8
07 16.06 Ю 5 27 км н/о +11.2 +9.0 86 +9 +9 1012.9 1011.2
08 16.06 Ю 3 24 км н/о +12.8 +9.9 83 +11 +11 1012.9 1011.2
09 16.06 Ю 3 24 км н/о +14.1 +10.8 81 +13 +13 1012.6 1011.0
10 16.06 Ю 6 26 км н/о +14.8 +10.4 75 +13 +13 1012.8 1011.1
11 16.06 Ю 8 30 км н/о +16.4 +10.2 67 +15 +15 1012.4 1010.8
12 16.06 Ю 7 35 км н/о +17.0 +10.0 63 +16 +16 1012.4 1010.8
13 16.06 Ю 6 35 км н/о +17.5 +9.6 60 +17 +17 1012.2 1010.6
14 16.06 Ю 6 35 км н/о +18.1 +10.1 60 +18 +18 1012.0 1010.3
15 16.06 Ю 6
{14}
35 км н/о +16.6 +12.7 78 +15 +15 1012.2 1010.5
16 16.06 Ю 6 35 км н/о +16.6 +11.2 70 +16 +16 1012.0 1010.4
17 16.06 ЮЗ 5 30 км н/о +17.3 +10.7 65 +17 +17 1012.1 1010.5
18 16.06 ЮЗ 3 28 км н/о +17.5 +10.3 63 +17 +17 1012.0 1010.3 +18.9 0.8
19 16.06 ЮЗ 5
{13}
17 км н/о +15.8 +11.0 73 +15 +15 1012.5 1010.8
20 16.06 Ю 4 27 км н/о +15.4 +11.3 77 +15 +15 1012.2 1010.5
21 16.06 Ю 5 27 км н/о +15.5 +11.1 75 +14 +14 1012.1 1010.5
22 16.06 Ю 6 25 км н/о +14.8 +11.2 79 +13 +13 1012.0 1010.3
23 16.06 Ю 5 25 км н/о +14.6 +11.5 82 +13 +13 1012.2 1010.5
00 17.06 Ю 6 27 км н/о +14.8 +11.2 79 +13 +13 1012.3 1010.6
01 17.06 Ю 7 28 км н/о +14.3 +10.3 77 +12 +12 1012.3 1010.6
02 17.06 Ю 5 27 км н/о +13.8 +10.9 83 +12 +12 1012.2 1010.5
03 17.06 Ю 5 27 км н/о +13.7 +10.6 82 +12 +12 1011.9 1010.2
04 17.06 Ю 5 27 км н/о +14.1 +10.9 81 +12 +12 1012.0 1010.4
05 17.06 ЮЗ 4 27 км н/о +13.8 +11.2 84 +12 +12 1012.2 1010.5
06 17.06 ЮЗ 6 30 км н/о +13.7 +11.0 84 +12 +12 1012.6 1010.9 +13.6
07 17.06 ЮЗ 5 35 км 9/9 360 м
[Sc]
+13.6 +10.4 81 +12 +12 1013.2 1011.5
08 17.06 ЮЗ 6 35 км в посл. час дождь 9/9 480 м
[Cu Sc Ci fib]
+14.2 +10.3 77 +12 +13 1013.2 1011.6
09 17.06 Ю 5 35 км {дождь} 9/9 480 м
[Cu Sc]
+14.5 +10.5 77 +13 +14 1013.6 1011.9
10 17.06 ЮЗ 5 20 км слаб. дождь 10/10 400 м
[Cu Sc]
+14.4 +11.6 83 +13 +13 1013.9 1012.2
11 17.06 Ю 6 35 км в посл. час дождь 9/9 540 м
[Cu Sc]
+17.0 +12.4 74 +16 +17 1013.7 1012.1
12 17.06 Ю 6 30 км {дождь} 9/9 600 м
[Cu Sc]
+16.7 +11.3 70 +16 +16 1013.9 1012.2 0.0
13 17.06 Ю 7 35 км 9/9 720 м
[Cu Sc]
+17.0 +11.0 68 +16 +16 1014.0 1012.3
14 17.06 Ю 8 30 км 9/9 960 м
[Cu Sc Ac trans Ci fib]
+18.9 +11.0 60 +19 +19 1013.5 1011.8
15 17.06 ЮЗ 7 35 км 9/9 960 м
[Cu Sc Ci fib]
+19.5 +11.4 59 +20 +20 1013.3 1011.7
16 17.06 Ю 6 35 км 9/9 960 м
[Cu Sc Cs]
+18.2 +12.2 68 +18 +18 1013.0 1011.4
17 17.06 ЮЗ 3 30 км н/о +18.1 +12.6 70 +18 +18 1012.9 1011.2
18 17.06 ЮЗ 4 27 км н/о +15.5 +13.0 85 +15 +15 1013.3 1011.7 +19.9 0.4
19 17.06 Ю 4 28 км н/о +16.5 +13.9 85 +16 +16 1013.2 1011.6
20 17.06 Ю 2 27 км н/о +15.5 +13.2 86 +15 +15 1013.4 1011.7

 

Местоположение метеостанции Линтон-он-Уз (Великобритания): широта 54.05 долгота -1.25 высота над уровнем моря 14 м.

В архиве по умолчанию представлена погода в Линтон-он-Узе за последнюю неделю. Архивные данные за месяц целиком и за предыдущие месяцы, начиная с января 2011 года, Вы можете получить, выбрав интересующий диапазон дат из раскрывающегося списка и нажав кнопку "Ввод!".


*Определитесь, кто Вы:
робот инопланетянин человек

Внимание! Время в таблицах - всемирное. Для получения местного времени необходимо прибавить поправку, которая равна 0 ч.

Смотрите также архив погоды в соседних городах и на ближайших метеорологических станциях:

Погода в Дишфорт Эйрфилд (Великобритания) (14 км)
Погода в Топклиффе (Великобритания) (19 км)
Погода в Лееминге (Великобритания) (33 км)
Погода в Бингли (Великобритания) (48 км)
Погода в Файлингдейлсе (Великобритания) (52 км)
Погода в Лидс-Брэдфорд (Великобритания) (57 км)
Погода в Леконфилде (Великобритания) (57 км)
Погода в Лофтусе (Великобритания) (63 км)
Погода в Бридлингтоне (Великобритания) (71 км)
Погода в Скемптоне (Великобритания) (95 км)

Пояснения к столбцам:

Ветер - указаны скорость ветра в м/с - средняя за 10 мин, порывы в срок и между сроками (в фигурных скобках) и направление, откуда дует ветер: С - северный, СВ - северо-восточный, В - восточный, ЮВ - юго-восточный, Ю - южный, ЮЗ - юго-западный, З - западный, СЗ - северо-западный.
Видимость - горизонтальная дальность видимости в метрах или километрах. При видимости от 1 до 10 км при отсутствии осадков обычно наблюдается дымка, при ухудшении видимости до 1 км и менее - туман. В сухую погоду видимость может ухудшаться дымом, пылью или мглою.
Явления - указаны атмосферные явления, наблюдавшиеся в срок или в последний час перед сроком; фигурными скобками обозначены явления, наблюдавшиеся между сроками (за 1-3 часа до срока); квадратными скобками обозначены град или гололедные отложения с указанием их диаметра в мм.
Облачность - указаны через наклонную черту общая и нижняя облачность в баллах и высота нижней границы облаков в метрах; квадратными скобками обозначены формы облаков: Ci - перистые, Cs - перисто-слоистые, Cc - перисто-кучевые, Ac - высококучевые, As - высокослоистые, Sc - слоисто-кучевые, Ns - слоисто-дождевые, Cu - кучевые, Cb - кучево-дождевые. Подробнее классификацию облаков см. в Атласе облаков (PDF).
T - Температура воздуха - температура, измеренная на высоте 2 м над землей.
Td - Температура точки росы - температура, при понижении до которой содержащийся в воздухе водяной пар достигнет насыщения.
f - Относительная влажность воздуха - влажноcть воздуха, измеренная на высоте 2 м над землей.
Te - Эффективная температура - температура, которую ощущает одетый по сезону человек в тени. Характеристика душности погоды. При расчете учитывается влияние влажности воздуха и скорости ветра на теплоощущения человека.
Tes - Эффективная температура на солнце - температура, которую ощущает человек, с поправкой на солнечный нагрев. Характеристика знойности погоды. Зависит от высоты солнца над горизонтом, облачности и скорости ветра. Ночью, в пасмурную погоду, а также при ветре 12 м/с и более поправка равна нулю.
P - Атмосферное давление - приведенное к уровню моря атмосферное давление.
Po - Атмосферное давление - измеренное на уровне метеостанции атмосферное давление.
Tmin - Минимальная температура - минимум температуры воздуха на высоте 2 м над землей.
Tmax - Максимальная температура - максимум температуры воздуха на высоте 2 м над землей.
R - Количество осадков - Количество выпавших осадков за период времени, мм. При наведении курсора мыши на число - период времени, за который выпало указанное количество осадков.
R24 - Количество осадков - Количество выпавших осадков за 24 часа, мм.
S - Снежный покров - Высота снежного покрова, см. При наведении курсора мыши на число - состояние снежного покрова и степень покрытия местности в баллах.